CZ-6A DEB, 54590

Orbit data source: Space-Track

CZ-6A DEB, 54590 is space debris in SSO originally from a launch on Fri, 11 Nov 2022 UTC launched from the Taiyaun Space Center, China (TSC). Debris objects in space refer to the collection of defunct objects orbiting the Earth. Examples of debris include non-operational satellites, rocket bodies, and fragments generated from explosions, collisions, or faulty payload assembly.

Loading next visibility...
Identifier
54590, 2022-151MQ
Orbit
SSO
Country
Flag of CNCN / PRC
Related business
Manufacturer
SAST
Mission
Spacecraft
Bus & Motor
Unknown
Mass
Unknown
Launch date (UTC)
2022-11-11 (3 years ago)
Launch vehicle
Unknown
Launch site
Taiyaun Space Center, China (TSC)
Object type
Payload
Rocket body
Debris
Shape & HBR
Unknown shape, 0.1 m
Radar Cross Section
Small (<0.1 m²)

Expand to show TLE details & history
Last TLE update: 18 hours ago

TLE from 18 hours ago
0 CZ-6A DEB
1 54590U 22151MQ  25350.27769617  .00003797  00000-0  12798-2 0  9999
2 54590  98.6075 355.4577 0069270 254.0788 105.2757 14.36254054160844
Epoch: 2025-12-16T06:39Z
TLE epoch observation values (Epoch: 2025-12-16T06:39:52.949Z)
Latitude
0.00001°
Longitude
170.32287°
Altitude
787.21 km
Speed
7.453 km/s
True Right ascension
23h 41m 49s
True Declination
0° 00' 00"
Sunlit
Object was in daylight at epoch
Visualization orbit readout
Latitude
Unknown
Longitude
Unknown
Altitude
Unknown
Speed
Unknown
Apparent Right ascension
Unknown
Apparent Declination
Unknown
Sunlit
N/A
Visualization observer readout
Local Sidereal Time
23:46:51
Azimuth
Unknown
Elevation
Unknown
Doppler factor
Unknown
Orbital elements
Apogee altitude
817.535 km
Perigee altitude
718.532 km
Semi-major axis
7,146.171 km
Eccentricity
0.00693
Inclination
98.6075°
RAAN
355.4577°
Arg. of periapsis
254.0788°
True anomaly
106.03967°
Mean anomaly
105.2757°
Eccentric anomaly
105.65786°
Mean motion
3.5928 °/min
Orbital period
100.2 mins
BSTAR
0.0012798
Loading maneuver chart data...
Computing Atmospheric mass density...
Loading historical data...
Loading historical data...
Loading historical data...
Loading historical data...
Loading historical data...
Loading historical data...
Loading historical data...

Documentation

Showing up to 5 results
|